CDT,Max TemperatureF,Mean TemperatureF,Min TemperatureF,Max Dew PointF,MeanDew PointF,Min DewpointF,Max Humidity, Mean Humidity, Min Humidity, Max Sea Level PressureIn, Mean Sea Level PressureIn, Min Sea Level PressureIn, Max VisibilityMiles, Mean VisibilityMiles, Min VisibilityMiles, Max Wind SpeedMPH, Mean Wind SpeedMPH, Max Gust SpeedMPH,PrecipitationIn, CloudCover, Events, WindDirDegrees
2013-10-1,82,67,52,52,49,45,89,59,28,29.96,29.89,29.76,10,10,10,16,7,21,0.00,0,,58
2013-10-2,86,69,52,63,57,48,86,65,44,29.96,29.88,29.80,10,10,7,28,10,35,0.00,1,,171
2013-10-3,80,71,61,66,61,57,100,79,58,29.92,29.79,29.70,10,8,1,30,12,36,2.06,6,Rain-Thunderstorm,94
2013-10-4,86,67,47,70,59,34,93,68,43,29.94,29.73,29.59,10,10,10,29,16,33,0.00,7,,121
2013-10-5,53,48,43,35,32,29,70,56,41,29.97,29.93,29.86,10,10,10,28,17,36,T,6,Rain,255
2013-10-6,62,52,42,43,38,29,89,61,33,30.05,29.92,29.84,10,10,7,26,14,32,T,7,Rain,304
2013-10-7,75,56,37,42,37,33,92,59,25,30.12,30.06,29.99,10,10,10,18,8,23,0.00,0,,222
2013-10-8,78,61,44,45,42,39,76,54,31,29.99,29.94,29.87,10,10,10,30,15,37,0.00,0,,177
2013-10-9,79,66,52,50,48,45,71,54,37,29.97,29.94,29.90,10,10,10,23,14,31,0.00,0,,161
2013-10-10,81,68,54,57,54,50,86,64,42,29.96,29.88,29.75,10,10,10,28,14,32,0.00,0,,160
2013-10-11,79,65,50,58,49,36,78,50,21,29.92,29.70,29.62,10,10,10,29,16,37,0.00,1,,202
2013-10-12,68,53,37,40,34,27,79,51,22,30.31,30.14,29.94,10,10,7,15,5,20,0.00,0,,307
2013-10-13,69,52,35,37,34,33,92,59,26,30.44,30.35,30.29,10,10,7,20,9,25,0.00,1,,103
2013-10-14,60,54,48,58,48,33,90,65,40,30.26,29.95,29.74,10,8,1,31,16,39,0.53,8,Rain-Thunderstorm,159
2013-10-15,53,49,45,45,37,33,83,69,54,30.13,30.03,29.86,10,10,10,28,17,36,0.00,7,,297
2013-10-16,58,49,39,39,33,23,79,55,30,30.13,30.08,29.99,10,10,10,17,7,22,0.00,4,,297
2013-10-17,60,46,32,40,35,30,92,69,46,30.10,29.99,29.94,10,10,9,25,10,30,0.00,3,,307
2013-10-18,50,42,34,33,29,23,82,58,33,30.18,30.12,30.06,10,10,10,12,7,15,0.00,0,,291
2013-10-19,64,47,30,36,31,27,85,59,32,30.05,29.93,29.83,10,10,10,24,7,31,0.00,0,,223
2013-10-20,66,51,36,41,36,33,85,58,31,30.06,29.84,29.75,10,10,10,23,9,28,0.00,3,,321
2013-10-21,56,42,28,36,32,26,92,68,43,30.15,30.07,29.95,10,10,9,17,5,21,0.00,3,,260
2013-10-22,55,41,27,42,37,31,82,66,50,30.16,30.01,29.91,10,10,10,26,12,33,0.00,5,,329
2013-10-23,55,41,27,39,33,26,92,73,54,30.25,30.15,30.06,10,10,9,28,6,32,0.00,3,,44
2013-10-24,51,39,26,34,26,20,85,58,31,30.45,30.39,30.27,10,10,7,16,6,21,0.00,2,,337
2013-10-25,60,42,24,30,27,22,85,59,32,30.45,30.30,30.09,10,10,9,24,10,30,0.00,1,,193
2013-10-26,53,39,25,33,29,22,82,59,35,30.27,30.19,30.06,10,10,9,20,7,24,0.00,0,,330
2013-10-27,72,49,25,37,30,22,84,55,25,30.17,29.98,29.83,10,10,10,23,8,29,0.00,0,,186
2013-10-28,53,44,34,40,35,32,89,70,50,30.19,30.11,29.97,10,10,10,22,12,29,0.04,2,Rain,45
2013-10-29,51,47,43,50,45,39,100,91,82,30.15,30.04,29.95,10,5,1,15,8,20,0.16,8,Rain,61
2013-10-30,55,45,34,52,45,38,100,88,76,29.99,29.89,29.80,10,5,2,15,7,17,0.04,8,Rain-Thunderstorm,333
2013-10-31,59,46,33,42,36,31,100,69,37,29.77,29.65,29.55,10,8,5,22,7,28,0.00,0,,291